Location: Estes Par
(40.3770°N, 105.5210°W)
Time: 22:21:17
(UTC-07:00)

Tiangong 1 - Pass Details

Date: 12 October 2017
Orbit: 276 x 303 km, 42.8° (Epoch: 12 December)

Event Time Altitude Azimuth Distance (km) Brightness Sun altitude
Rises 19:03:31 0° 282° (WNW) 2,082 6.6 -7.9°
Reaches altitude 10° 19:05:35 10° 288° (WNW) 1,236 4.9 -8.3°
Maximum altitude 19:08:17 51° 6° (N) 407 1.1 -8.8°
Enters shadow 19:10:25 14° 81° (E) 998 2.5 -9.2°
